Location: Terling
(51.8000°N, 0.5500°E)
Time: 23:14:59
(UTC+00:00)

Daily predictions for brighter satellites

Satellite Brightness Start Highest point End
(mag) Time Altitude Azimuth Time Altitude Azimuth Time Altitude Azimuth
Cosmos 2098 Rocket 3.6 16:19:51 10° SSE 16:24:06 47° E 16:29:03 10° NNE
Cosmos 2208 Rocket 4.3 16:20:00 10° NNW 16:25:10 73° WSW 16:30:20 10° SSE
Meteor 1-27 4.4 16:19:37 10° SSW 16:25:25 84° WNW 16:31:11 10° NNE
Cosmos 1782 2.7 16:23:28 10° S 16:26:58 53° E 16:30:29 10° NNE
Cosmos 2227 Rocket 2.3 16:23:02 10° NNW 16:28:36 56° NE 16:34:09 10° SE
Meteor 1-28 Rocket 3.9 16:26:34 10° NE 16:29:33 29° E 16:32:30 10° SSE
Cosmos 2369 Rocket 3.9 16:27:48 10° W 16:32:23 25° NW 16:37:02 10° NNE
CBERS-1 4.0 16:28:18 10° SSE 16:33:23 68° ENE 16:38:29 10° NNW
CENTAUR R/B 3.2 16:34:49 10° WSW 16:40:43 51° NNW 16:48:10 10° NE
Cosmos 1697 Rocket 3.3 16:36:48 10° S 16:41:58 39° ESE 16:47:08 10° NE
Cosmos 1626 Rocket 4.0 16:38:06 10° NNW 16:42:24 66° W 16:46:39 10° S
Cosmos 2360 4.3 16:37:45 10° SSW 16:43:27 76° ESE 16:49:12 10° NNE
Cosmos 1538 Rocket 4.5 16:39:41 10° NNW 16:44:38 39° NE 16:49:36 10° ESE
CZ-2D R/B 3.8 16:42:33 10° SE 16:45:11 25° ENE 16:47:50 10° N
NOSS 3 (A) 4.5 16:43:42 10° NNW 16:45:49 38° NE 16:48:28 10° ESE
Cosmos 2278 Rocket 4.3 16:45:29 10° NNW 16:46:59 11° N 16:48:28 10° N
Cosmos 2266 Rocket 3.9 16:42:02 10° N 16:48:11 66° ENE 16:54:11 10° SSE
Cosmos 1656 3.9 16:45:36 10° SW 16:51:15 77° WNW 16:56:59 10° NNE
Cosmos 2228 4.0 16:48:14 10° SSW 16:52:20 48° WNW 16:56:29 10° N
Cosmos 1606 Rocket 4.1 16:49:16 10° SSE 16:53:20 37° E 16:57:25 10° NNE
Cosmos 1503 Rocket 4.0 16:50:18 10° S 16:55:28 66° ESE 17:00:37 10° NNE
Lacrosse 5 rocket 1.9 16:52:40 10° WNW 16:56:10 37° N 16:58:51 15° ENE
CZ-4C R/B 3.5 16:51:37 10° NW 16:58:25 66° SW 17:06:53 10° SSE
UNK 4.1 16:54:04 10° NNE 16:58:29 44° E 17:02:49 10° S
Cosmos 1484 Rocket 3.1 16:56:58 10° S 17:00:25 59° WSW 17:03:53 10° NNW
Cosmos 1743 3.1 16:57:32 10° NNW 17:00:43 53° W 17:03:52 10° S
Thor Agena Rocket 3.5 16:56:29 10° SSE 17:01:41 84° ENE 17:06:51 10° NNW
Cosmos 1544 Rocket 4.0 16:58:18 10° SSW 17:02:41 66° WNW 17:07:08 10° N
IRS-P3 4.4 16:59:22 10° SE 17:04:25 46° ENE 17:09:29 10° N
NOSS 2-3 (D) 4.2 17:01:41 10° S 17:04:54 29° ESE 17:07:03 17° ENE
NOSS 2-3 (E) 4.1 17:02:16 10° S 17:05:32 31° ESE 17:07:43 17° ENE
Cosmos 1354 Rocket 4.1 17:01:21 10° S 17:06:30 58° ESE 17:11:39 10° NNE
IGS 5A 3.8 17:03:58 10° S 17:07:55 66° W 17:11:53 10° NNW
NOSS 2-2 (D) 3.7 17:04:59 10° WSW 17:07:56 37° NW 17:10:11 15° NNE
Cosmos 1777 Rocket 4.0 17:03:26 10° SSW 17:08:41 87° WNW 17:13:58 10° NNE
Cosmos 2151 3.3 17:04:39 10° NNW 17:08:48 66° W 17:12:56 10° S
Cosmos-2242 4.3 17:07:14 10° SE 17:10:18 20° E 17:11:24 18° ENE
USA 238 DEB 4.2 17:04:56 10° S 17:10:23 35° ESE 17:14:48 16° ENE
USA 238 4.3 17:05:05 10° S 17:10:30 34° ESE 17:14:54 16° ENE
MOS 1 Rocket 3.6 17:06:26 10° SE 17:11:19 53° ENE 17:16:27 10° N
Gbstr 26 Del rocket 3.4 17:10:10 10° SW 17:14:06 44° SSE 17:16:29 19° E
Cosmos 1726 Rocket 3.9 17:11:24 10° SSE 17:15:49 46° E 17:20:12 10° NNE
IRIDIUM 104 4.4 17:11:30 10° N 17:16:46 85° W 17:21:59 10° S
Cosmos 2082 4.0 17:11:35 10° NNW 17:17:06 46° NE 17:22:36 10° ESE
ERS-1 4.4 17:12:29 10° SSE 17:17:24 64° ENE 17:22:19 10° N
USA 215 3.5 17:12:07 16° ENE 17:17:27 59° N 17:23:52 10° W
AQUARIUS 4.1 17:14:32 10° SSE 17:18:52 59° ENE 17:23:13 10° N
Cosmos 1805 3.8 17:16:56 10° NNE 17:19:48 25° ENE 17:22:39 10° SE
SMAP 3.1 17:15:32 10° SSE 17:20:12 83° WSW 17:24:54 10° NNW
Cosmos 2297 Rocket 4.0 17:15:40 10° NW 17:20:44 34° WSW 17:25:47 10° S
GEOS 3 Rocket 4.0 17:19:09 18° NE 17:23:05 50° SE 17:28:17 10° SSW
Landsat 7 3.7 17:19:40 10° SSE 17:24:19 87° ENE 17:29:01 10° NNW
Cosmos 923 Rocket 4.4 17:21:18 10° NNW 17:26:10 38° NE 17:30:59 10° ESE
YAOGAN 1 3.2 17:23:25 10° SE 17:27:09 31° ENE 17:30:55 10° N
Okean 1-7 Rocket 4.2 17:25:24 10° NNW 17:29:44 59° W 17:34:00 10° S
Cosmos 990 Rocket 3.9 17:28:44 10° SSW 17:33:51 81° ESE 17:38:14 15° NNE
Cosmos 1461 3.3 17:30:08 10° WSW 17:33:58 52° NW 17:36:23 21° NNE
NOSS 2-2 (E) 4.2 17:31:18 10° W 17:34:04 29° NNW 17:35:28 20° NNE
SL-16 R/B 3.0 17:28:27 10° NNE 17:34:35 62° WNW 17:40:40 10° SW
CZ-2D R/B 3.8 17:31:17 10° SE 17:35:11 40° ENE 17:39:03 10° N
SKYMED 2 4.2 17:35:14 26° ENE 17:36:42 33° E 17:40:39 10° SSE
COSMOS 2455 4.2 17:34:33 10° SSE 17:38:33 19° ESE 17:38:36 19° ESE
Okean 1 4.4 17:36:24 10° SSE 17:38:20 22° ESE 17:38:20 22° ESE
Cosmos 1844 Rocket 3.3 17:38:57 10° NNW 17:44:04 34° NE 17:45:50 28° ENE
Cosmos 2219 3.1 17:38:35 10° NNW 17:44:22 78° ENE 17:50:07 10° SE
SJ-6F 4.3 17:41:33 10° SSE 17:45:32 89° WSW 17:49:36 10° NNW
Cosmos 1980 Rocket 2.3 17:40:44 10° S 17:46:14 55° ESE 17:49:21 25° NE
Cosmos 1953 Rocket 3.5 17:42:14 10° N 17:46:43 88° WSW 17:51:11 10° S
Aureole 1 Rocket 3.6 17:43:39 10° S 17:48:15 56° ESE 17:51:47 22° NE
Meteor 1-26 Rocket 4.4 17:44:31 10° SSE 17:49:37 45° E 17:52:49 22° NNE
PSLV R/B 3.7 17:49:58 31° ESE 17:51:17 42° ENE 17:55:08 10° N
Cosmos 2263 Rocket 2.5 17:46:52 10° NW 17:52:31 69° WSW 17:58:09 10° SSE
ARIANE 5 R/B 3.2 17:48:22 10° S 17:53:21 58° WSW 17:58:28 10° NNW
SL-19 R/B 4.3 17:48:57 10° SE 17:54:16 55° ENE 17:59:55 10° N
NOSS 3-2 (A) 4.3 17:51:36 10° W 17:56:45 39° NNW 18:00:32 21° NE
BREEZE-M DEB (TANK) 4.2 17:54:41 10° SSW 17:57:11 18° SSE 17:57:14 18° SSE
Cosmos 1680 Rocket 3.6 17:52:51 10° NNW 17:57:55 49° ENE 18:00:24 28° ESE
COSMO-SKYMED 1 3.4 17:59:08 30° SE 17:59:08 30° SE 18:01:49 10° SSE
BREEZE-M DEB (TANK) 4.1 17:55:36 10° W 17:59:03 63° S 18:06:53 17° ESE
NOSS 3-2 (C) 3.6 17:54:24 10° WSW 17:59:38 59° NW 18:03:20 24° NE
Cosmos 1076 Rocket 4.1 17:57:06 10° NNW 18:01:20 58° W 18:05:34 10° S
Meteor 2-10 4.1 17:56:08 10° NNW 18:01:33 87° WSW 18:07:07 10° S
NOAA 15 4.5 17:56:20 10° SSE 18:01:35 71° ENE 18:06:52 10° NNW
Lacrosse 4 Rocket 3.9 18:02:02 10° NNW 18:02:36 10° NNW 18:03:10 10° N
NOAA 6 4.1 17:58:39 10° SE 18:03:34 51° ENE 18:08:30 10° N
Cosmos 2369 4.0 17:58:32 10° S 18:03:56 45° ESE 18:05:20 38° ENE
Cosmos 1943 Rocket 4.2 18:02:15 10° N 18:04:06 12° NNE 18:04:10 12° NNE
Resurs 01 Rocket 3.7 18:11:53 14° N 18:11:53 14° N 18:12:32 10° N
Cosmos 1655 Rocket 4.4 18:04:02 10° NNW 18:10:12 63° W 18:16:18 10° S
USA 81 4.1 18:05:26 10° N 18:10:44 83° W 18:16:00 10° S
Cosmos 44 Rocket 3.6 18:06:10 10° NW 18:11:10 51° NE 18:11:53 47° ENE
Cosmos 2227 Rocket 4.1 18:07:28 10° NW 18:12:22 31° WSW 18:17:15 10° SSW
SPOT 1/Viking Rocket 3.8 18:12:13 10° S 18:17:25 72° WSW 18:22:39 10° NNW
Cosmos 2369 Rocket 4.5 18:16:40 10° NNW 18:18:38 12° N 18:20:37 10° N
Cosmos 2058 Rocket 3.1 18:20:05 10° SSW 18:24:34 79° W 18:26:26 35° N
Cosmos 1697 Rocket 3.5 18:20:29 10° WSW 18:25:51 46° NW 18:29:16 22° NNE
OceanSat 1 rocket 4.4 18:22:16 10° SSE 18:27:00 83° ENE 18:31:44 10° NNW
USA 281 4.3 18:28:12 26° NNE 18:28:12 26° NNE 18:32:43 10° NNW
CENTAUR R/B 3.8 18:26:50 10° WNW 18:33:01 34° N 18:35:36 28° NNE
Meteor 2-11 Rocket 4.3 18:27:25 10° N 18:33:38 83° E 18:39:47 10° SSE
Lacrosse 5 rocket 2.5 18:30:10 10° WNW 18:32:26 30° NW 18:32:26 30° NW
Cosmos 2278 Rocket 4.2 18:30:50 10° N 18:32:43 13° N 18:32:43 13° N
Cosmos 2333 Rocket 4.4 18:29:19 10° SSE 18:29:34 11° SSE 18:29:34 11° SSE
NOSS 2-3 (C) 3.8 18:31:59 10° WSW 18:34:52 51° WNW 18:34:52 51° WNW
Meteor 1-14 Rocket 4.1 18:32:03 10° N 18:37:51 70° ENE 18:39:09 52° SE
Resurs 1-3 4.2 18:40:05 10° S 18:44:18 54° W 18:48:32 10° NNW
Cosmos-2242 3.7 18:42:51 10° SSW 18:46:59 50° WNW 18:47:46 44° NW
Cosmos 1844 3.6 18:49:33 10° NNW 18:54:37 70° N 18:54:37 70° N
Cosmos 1898 Rocket 3.8 18:50:55 10° SW 18:56:01 62° WNW 18:56:45 56° NNW
Cosmos 2112 Rocket 4.1 18:54:27 10° NNW 18:59:40 72° WSW 18:59:47 72° SW
USA 215 3.2 18:59:28 61° NE 19:00:06 65° NNE 19:06:35 10° WNW
Gbstr 26 Del rocket 4.4 18:56:19 10° W 18:58:31 32° W 18:58:31 32° W
USA 238 DEB 3.7 18:54:37 10° WSW 19:00:50 69° NW 19:02:15 54° NNE
USA 238 3.7 18:54:43 10° WSW 19:00:57 69° NW 19:02:21 55° NNE
GEOS 3 Rocket 4.3 19:00:12 46° N 19:01:03 50° NW 19:06:13 10° WSW
Cosmos 1553 Rocket 4.2 18:55:20 10° SSW 19:01:30 68° WNW 19:07:31 11° N
YAOGAN 1 4.1 18:59:03 10° SSW 19:02:57 35° W 19:06:53 10° NNW
BREEZE-M DEB (TANK) 4.2 19:01:52 10° SW 19:06:16 34° S 19:06:16 34° S
Cosmos 1709 Rocket 4.3 19:04:41 10° N 19:09:09 51° N 19:09:09 51° N
Cosmos 1937 Rocket 3.9 19:06:20 10° SW 19:10:58 59° W 19:10:58 59° W
Meteor 2-6 Rocket 4.3 19:06:10 10° SSW 19:11:37 76° WSW 19:11:37 76° WSW
Cosmos 2227 4.4 19:06:51 10° NW 19:12:29 67° WSW 19:12:30 67° WSW
SL-16 R/B 3.8 19:09:13 10° SSW 19:11:20 23° S 19:11:20 23° S
Cosmos 1745 Rocket 4.1 19:09:31 10° NNW 19:15:41 71° W 19:21:45 10° S
COSMOS 2455 3.5 19:17:35 10° SSW 19:21:47 47° SSW 19:21:47 47° SSW
Cosmos 1844 Rocket 3.3 19:22:43 10° NW 19:27:30 54° W 19:27:30 54° W
Cosmos 1980 Rocket 3.4 19:25:19 10° WSW 19:30:29 35° NW 19:31:07 34° NNW
CENTAUR R/B 4.2 20:18:19 10° NW 20:22:42 34° NNW 20:22:42 34° NNW
